GLOBALSTAR M057 [-]

Last updated on Thu Dec 28 2023 00:02:57 GMT+0000 (Greenwich Mean Time)

1 25943U 99058A 23361.48074052 -.00000088 00000+0 42864-4 0 9993 2 25943 51.9995 74.1412 0002013 351.4055 8.6760 12.24780584101045
UTC large
Height (km)
Speed (km/s)
/
Latitude / Longitude
Inclination (degrees)
Orbital Period (minutes)
Azimuth
Elevation
Range (km)
Doppler Factor

Next 0 passes for location: London (51.5072 / 0.1276)

Sorry there are no passes over London.